Location: ?????????
(41.2393°N, 22.9479°E)
Time: 05:57:55
(UTC+00:00)

USA 281 - Pass Details

Date: 17 November 2025
Orbit: 1079 x 1080 km, 106.0° (Epoch: 08 December)

Event Time Altitude Azimuth Distance (km) Brightness Sun altitude
Exits shadow 17:15:09 34° 39° (NE) 1,698 3.9 -23.9°
Drops below altitude 10° 17:20:06 10° 352° (N) 2,927 5.5 -24.9°
Sets 17:22:49 0° 344° (NNW) 3,887 6.3 -25.4°
